RH
34 32 28 21 19 19 19 12 9 9 10 13 16 23 31 25 15 16 14 26 20 35 49 71 93 97 99 93 100 100 98 98 99 71 54 68 88 72
28 29 30 26 23 19 19 23 22 16 13 13 15 15 14 16 18 20 21 23 20 23 28 39 48 60 65 68 63 65 71 68 71 76 77 67 61 62
43 42 41 40 36 35 27 24 26 29 31 30 26 19 17 19 20 19 19 19 21 22 24 27 31 43 49 58 58 54 53 57 63 63 64 71 62 59
58 59 57 51 45 40 40 38 33 28 27 28 36 37 31 24 16 17 20 22 23 24 25 25 26 28 35 46 49 53 57 53 46 46 44 51 57 71
74 76 73 68 65 63 56 49 45 43 35 32 28 25 25 30 32 29 22 20 22 23 23 22 23 25 30 33 38 38 42 50 58 52 50 52 59 56
85 79 83 83 76 76 75 69 63 57 52 49 44 45 41 37 32 27 24 28 32 34 34 33 32 31 30 28 29 34 35 36 38 34 31 30 32 40
81 87 88 94 94 90 88 79 76 72 69 65 60 55 50 53 50 48 43 43 38 32 25 24 22 22 22 24 28 33 34 31 35 38 40 44 48 48
88 92 98 93 91 96 100 100 91 75 74 70 69 66 69 65 60 57 52 53 50 47 50 51 40 31 28 26 23 22 22 22 21 21 23 26 28 32
64 63 67 76 74 69 95 89 81 82 85 79 68 63 65 64 64 64 63 62 64 63 60 46 39 40 46 45 39 32 26 24 23 22 20 19 18 18
71 74 76 74 82 77 77 91 90 86 79 76 84 72 67 67 66 66 58 55 60 58 58 60 64 60 48 43 44 46 48 43 33 28 23 21 20 20
80 83 78 82 93 97 89 100 100 98 88 82 64 70 74 72 66 68 69 61 52 56 53 51 43 45 44 43 39 36 34 30 27 25 24 23 21 18
89 100 100 98 89 98 100 100 88 94 84 77 78 77 79 84 73 63 59 60 60 51 44 45 46 45 30 24 22 28 31 28 21 20 20 19 16 14
100 100 100 100 96 100 100 98 98 100 98 92 78 78 77 76 76 78 65 63 67 63 61 49 37 30 26 24 19 19 22 22 20 17 14 12 11 10
100 100 100 100 100 100 100 100 100 100 100 96 88 83 64 69 66 72 62 55 72 56 43 57 56 46 34 23 18 18 17 18 17 13 10 9 8 7
81 98 99 100 93 90 100 100 100 100 100 100 89 100 83 68 73 71 59 50 63 51 32 27 28 34 31 26 21 19 22 16 13 10 8 7 7 7
100 100 100 98 81 83 98 100 100 100 100 100 95 87 94 82 73 64 64 60 45 54 52 37 29 27 26 20 18 20 19 16 12 9 7 7 9 9
97 100 98 84 75 81 100 100 100 100 95 89 97 85 86 79 79 66 69 67 42 37 37 36 36 31 24 19 19 22 18 13 9 8 8 8 9 6
98 91 89 85 89 99 100 100 100 98 100 100 95 88 91 85 76 69 68 68 36 31 31 32 34 28 21 16 18 21 15 9 8 8 9 9 6 7
91 95 87 100 100 100 100 100 100 100 95 90 87 89 79 72 66 74 87 54 33 29 26 31 28 23 21 18 14 16 12 8 8 10 10 8 6 6
100 97 100 100 100 100 98 96 89 98 85 78 77 57 52 58 51 83 54 32 36 24 23 28 25 23 19 19 17 12 9 9 10 10 10 7 6 6
100 100 100 100 100 100 98 87 90 55 46 48 42 33 41 34 59 60 22 25 29 26 24 24 24 21 18 18 16 10 9 10 10 10 9 6 6 6
100 98 100 100 96 99 95 74 43 26 25 34 25 28 25 36 54 22 21 28 27 24 25 24 24 19 20 18 14 9 9 11 11 10 9 6 6 6
88 88 88 90 84 64 53 45 21 19 28 28 21 22 23 33 24 19 22 25 23 25 26 24 20 18 19 17 10 9 11 10 10 9 8 7 7 6
Wind_Speed
26 26 28 31 33 36 34 26 20 20 21 28 40 48 59 66 65 67 63 68 73 84 92 100 107 109 113 114 116 117 115 114 115 114 110 108 110 106
23 24 26 27 29 30 31 30 26 21 18 20 26 35 42 48 50 54 59 64 67 70 77 88 97 102 104 108 109 109 110 107 107 106 105 104 100 102
28 30 29 29 29 28 27 26 25 25 24 22 19 22 28 34 41 46 52 57 61 64 69 73 76 84 91 97 100 99 97 98 100 101 99 100 100 98
33 35 36 36 35 33 31 30 27 24 20 19 22 26 24 22 26 32 40 46 51 55 59 63 65 69 74 81 85 87 91 93 92 92 89 88 89 90
34 36 38 39 40 41 40 37 34 29 26 24 22 20 19 22 25 25 26 30 37 43 48 52 57 61 63 65 68 70 71 72 76 78 78 79 82 85
33 35 37 39 41 42 43 43 42 40 36 33 30 29 27 25 23 21 22 25 29 31 33 36 38 41 45 48 52 54 57 57 59 61 64 66 68 71
32 35 37 40 41 44 46 46 46 45 43 41 40 37 34 31 29 28 28 29 30 31 31 34 37 40 42 45 47 50 52 54 55 57 60 60 60 62
33 35 38 39 39 41 45 48 49 48 47 46 43 40 38 38 36 35 33 32 33 34 36 38 41 41 43 46 48 50 52 55 57 59 61 62 64 65
37 39 38 38 41 42 45 50 52 54 54 49 47 46 44 42 40 39 38 38 38 39 40 39 41 43 46 49 51 53 55 58 60 62 64 65 66 68
42 43 42 41 45 49 50 52 56 61 59 56 53 50 48 47 45 45 44 42 42 41 41 44 44 46 46 48 51 54 57 60 63 65 67 69 71 73
44 48 48 47 49 51 54 54 62 61 60 60 57 54 52 51 50 48 47 46 46 46 45 45 46 50 51 52 53 56 59 62 64 67 69 71 73 75
49 51 53 51 52 54 58 63 64 64 65 65 63 61 58 57 54 53 51 50 50 50 50 50 50 53 55 56 56 58 60 62 65 66 68 71 71 72
55 57 56 59 59 59 60 65 65 68 68 71 67 65 61 59 57 56 54 53 53 53 54 54 55 56 58 63 62 60 61 63 65 65 66 67 67 67
55 58 60 62 62 62 65 69 69 75 75 73 73 72 66 65 62 60 59 56 56 56 57 58 59 60 62 63 65 66 66 65 64 64 63 63 63 65
66 66 69 72 73 70 71 73 75 75 78 78 78 80 74 70 67 65 62 60 58 58 60 62 62 61 62 64 64 64 66 70 63 60 59 58 61 61
74 74 74 77 73 69 73 76 79 82 82 82 85 79 79 75 72 69 65 65 61 61 64 64 64 64 65 64 63 64 64 64 65 61 61 56 52 51
77 78 81 80 75 78 83 82 81 83 83 83 85 84 78 79 74 73 69 67 66 65 64 66 68 68 68 66 65 64 64 63 60 60 59 52 45 45
82 84 84 84 85 86 85 85 86 82 84 87 87 81 84 81 74 74 71 70 67 68 67 68 69 70 71 67 60 61 62 60 57 57 53 47 41 41
88 90 90 91 91 91 91 90 88 87 90 87 81 81 80 77 75 74 73 71 69 69 68 69 69 68 70 70 61 55 61 58 55 50 46 42 39 38
96 94 93 94 94 94 92 90 91 90 88 83 82 81 77 75 75 73 73 69 69 68 67 67 68 68 68 66 63 58 55 57 51 44 40 38 37 36
98 99 101 100 102 99 96 92 92 88 84 82 80 78 75 75 74 73 72 70 68 68 68 67 66 67 66 64 60 57 53 52 46 39 37 36 35 34
103 101 102 102 100 101 96 91 86 85 81 80 78 75 75 73 72 74 70 67 66 67 67 66 66 65 62 61 58 54 52 46 41 36 34 34 32 31
100 100 100 99 98 95 92 87 87 83 78 77 77 74 74 72 73 72 68 66 65 64 64 65 64 62 60 58 55 51 48 42 36 33 32 32 31 29
Wind_Direction
322 324 328 329 330 333 338 336 324 302 275 256 255 258 257 260 264 264 261 257 255 250 247 246 248 252 255 257 258 260 263 265 266 269 272 274 273 274
337 342 343 343 343 344 346 348 348 345 319 292 274 266 260 259 262 262 263 262 261 258 256 255 255 256 258 259 262 264 265 267 269 270 270 272 273 274
355 355 355 356 357 358 356 354 353 349 344 335 319 295 280 273 269 266 263 261 260 260 259 259 259 258 259 260 263 266 267 268 269 270 270 270 271 272
359 360 359 1 1 360 359 359 355 351 347 341 332 325 317 301 281 270 265 264 263 262 262 263 262 261 260 261 263 264 265 266 268 269 270 270 271 271
360 1 1 360 0 359 358 357 354 351 348 343 339 333 328 318 312 303 289 275 270 268 268 268 264 262 262 264 266 267 268 269 269 270 271 271 271 270
354 356 358 357 356 355 354 353 351 350 346 343 341 338 334 328 322 315 305 295 290 284 280 277 274 272 271 270 269 268 268 269 270 272 272 272 269 268
347 348 351 351 352 353 352 350 347 345 344 342 339 336 332 328 324 319 316 309 303 298 291 287 284 282 280 279 277 276 275 275 276 276 276 275 273 271
342 345 345 345 347 351 352 353 347 341 340 336 335 333 331 326 324 321 317 315 311 305 299 296 293 290 287 284 283 283 282 280 278 277 277 276 275 274
327 330 333 336 340 344 345 343 343 345 344 335 331 327 326 324 322 318 315 313 310 305 304 301 296 293 291 289 286 285 284 284 284 282 280 279 278 278
326 329 328 329 332 335 335 337 337 336 336 336 334 327 325 322 319 318 315 311 309 307 304 303 299 296 291 286 284 283 282 281 282 282 282 282 281 280
319 323 324 323 325 325 328 329 328 329 332 333 329 329 326 323 319 315 314 312 308 306 303 302 302 300 296 292 290 287 284 284 283 282 281 281 281 280
315 316 320 321 321 322 321 322 323 325 325 325 328 325 328 326 319 316 313 311 310 309 305 302 301 301 302 298 294 292 290 288 286 285 283 282 280 278
307 310 312 315 316 316 318 320 322 323 323 323 321 321 319 321 324 320 315 311 309 308 307 305 303 302 302 302 299 294 292 291 289 287 284 283 281 279
301 300 301 306 309 312 313 317 318 318 319 319 321 320 317 317 318 320 316 312 310 308 307 304 303 303 303 302 301 300 297 295 293 292 290 288 286 284
298 300 299 301 303 307 310 311 311 312 314 314 315 317 315 313 315 316 315 313 310 308 310 310 307 304 304 304 303 302 300 298 297 295 292 291 290 286
293 296 297 298 303 308 308 307 308 309 309 309 310 311 312 311 311 312 313 312 309 308 308 311 310 307 306 306 306 304 302 300 300 300 297 295 290 285
288 290 292 297 301 304 305 305 305 307 306 307 308 309 307 309 308 308 310 309 308 308 308 309 310 309 308 308 309 306 304 303 302 301 299 295 290 287
289 290 293 297 299 300 301 303 303 304 305 305 304 306 306 307 306 306 309 308 305 306 307 309 310 309 309 308 307 307 304 303 301 300 296 293 290 287
287 289 291 293 294 298 297 300 302 301 301 301 301 301 302 303 303 305 306 304 302 306 307 308 309 308 308 308 307 308 306 304 303 299 294 292 290 287
285 287 288 289 292 294 293 297 298 298 298 301 298 300 302 303 303 303 305 302 302 306 306 307 309 310 309 307 308 309 307 305 303 298 294 292 290 288
282 284 286 288 289 292 293 294 296 296 297 296 297 299 300 301 301 301 302 301 302 304 306 309 309 309 309 307 308 308 308 305 301 296 294 292 289 290
276 279 282 284 286 289 289 292 294 295 294 293 294 296 298 299 298 301 302 300 301 303 306 309 308 309 308 308 308 309 307 303 299 297 294 290 289 288
277 278 280 281 283 286 287 290 291 292 290 291 291 292 295 294 297 301 299 300 302 304 306 305 306 307 307 308 308 309 306 302 299 298 294 291 289 286